Regional Weather Roundup
Issued by NWS

Home | Current Version | Previous Version | Text Only | Print | Product List | Glossary On
Versions: 1 2 3 4 5 6 7 8 9 10 11 12 13 14 15 16 17 18 19 20 21 22 23 24 25 26 27 28 29 30 31 32 33 34 35 36 37 38 39 40 41 42 43 44 45 46 47 48 49 50
000
ASUS46 KLOX 302013
RWRCA

SOUTHERN CALIFORNIA WEATHER ROUNDUP
NATIONAL WEATHER SERVICE OXNARD CALIFORNIA
100 PM PDT TUE JUN 30 2015

NOTE: "FAIR" INDICATES FEW OR NO CLOUDS BELOW 12,000 FEET WITH NO
SIGNIFICANT WEATHER AND/OR OBSTRUCTIONS TO VISIBILITY.

  -  STATIONS PRECEEDED BY AN ASTERISK (*) ARE NOT NWS OR FAA
     STATIONS AND ARE NOT SUBJECT TO NWS AND FAA QUALITY CONTROL.

CAZ041-042-087-302100-
LA AND ORANGE COUNTY COASTAL AREAS


CITY           SKY/WX    TMP DP  RH WIND       PRES   REMARKS
L.A. DOWNTOWN  SUNNY     86  65  49 CALM      29.87F
L.A. AIRPORT   MOSUNNY   74  65  73 W12       29.90S
LONG BEACH     SUNNY     81  59  47 S9        29.89F

CITY           SKY/WX    TMP DP  RH WIND       PRES   REMARKS
AVALON           N/A     72 N/A N/A NE3         N/A
FULLERTON      SUNNY     87  59  38 VRB6      29.87F
*GETTY CENTER    N/A     86  59  39 S8          N/A
HAWTHORNE      SUNNY     82  64  54 W8        29.89S
*LOS ALAMITOS  MOSUNNY   80  62  53 S10       29.89S
*REDONDO BEACH   N/A     76  65  69 W3        29.90F
SANTA ANA      MOSUNNY   79  63  57 S14       29.89F
STA MONICA APT SUNNY     75  63  66 SW9       29.90S
*UCLA            N/A    N/A N/A N/A SW6       29.87F

$$

CAZ547-548-048-302100-
LA COUNTY VALLEYS AND INLAND EMPIRE


CITY           SKY/WX    TMP DP  RH WIND       PRES   REMARKS
BURBANK        SUNNY     94  57  28 SE7G16    29.89F HX  92
VAN NUYS       SUNNY     96  55  25 VRB7      29.88F HX  94

CITY           SKY/WX    TMP DP  RH WIND       PRES   REMARKS
CORONA AIRPORT MOCLDY    95  58  28 W14       29.87F HX  94
*CHATSWORTH      N/A     95  60  30 CALM      29.84F HX  95
CHINO          PTSUNNY  100  52  19 W12       29.88F HX  97
MARCH AFB      MOSUNNY   98  52  20 NW9       29.91F HX  96
*NORTHRIDGE      N/A     93  52  24 SE3         N/A  HX  90
ONTARIO        PTSUNNY   97  55  24 W13       29.89F HX  95
*PASADENA        N/A     93  61  33 NE1         N/A  HX  93
POMONA         SUNNY     91  55  29 W10       29.93F
RIVERSIDE      MOSUNNY   97  57  26 VRB6      29.88F HX  96
SAN BERNARDINO PTSUNNY   99  48  18 SW8       29.90F HX  95
*SAN GABRIEL     N/A     91  58  33 S5        29.93F HX  90
*WHITEMAN AP   NOT AVBL
*WOODLAND HILL   N/A     97  54  23 N5          N/A  HX  94

$$

CAZ054-055-302100-
LA AND SAN BERNARDINO COUNTY MOUNTAINS


CITY           SKY/WX    TMP DP  RH WIND       PRES   REMARKS
*BIG BEAR AIRP MOCLDY    73  45  35 SW6       30.31S
SANDBERG       SUNNY     96  45  17 SE18G26   30.13F HX  92

$$

CAZ028-029-059-060-099-302100-
ANTELOPE VALLEY AND SURROUNDING AREAS


CITY           SKY/WX    TMP DP  RH WIND       PRES   REMARKS
LANCASTER      SUNNY    101  49  17 W9        29.93F HX  98
PALMDALE       SUNNY    103  48  15 VRB5      29.94F HX  99

CITY           SKY/WX    TMP DP  RH WIND       PRES   REMARKS
29 PALMS       SUNNY    104  55  19 E13G24    29.96F HX 102
BARSTOW/DAGGET SUNNY    106  45  12 VRB5      29.88F HX 101
BISHOP         MOSUNNY  101  43  13 S8G20     30.04F HX  96
CHINA LAKE     PTSUNNY  106  45  12 MISG      29.90F HX 101
EDWARDS AFB    PTSUNNY  103  46  14 E8        29.91F HX  99
MOJAVE         FAIR     100  46  16 SW10      29.97F HX  96
NEEDLES        MOSUNNY  110  54  15 S10       29.81F HX 108
VICTORVILLE    SUNNY    102  43  13 SW12G18   29.97F HX  98

$$

CAZ039-040-302100-
VENTURA AND SANTA BARBARA COUNTY COAST


CITY           SKY/WX    TMP DP  RH WIND       PRES   REMARKS
CAMARILLO      SUNNY     81  60  48 SW10      29.89F
NWS OXNARD       N/A     80  60  49 CALM      29.89S
OXNARD AIRPORT SUNNY     75  59  57 SW9       29.90S
*POINT MUGU    MOSUNNY   76  60  57 SW10      29.90F
SBA APT/GOLETA PTSUNNY   75  60  59 VRB6      29.89F
*SANTA BARBARA   N/A     83  57  40 W3        29.97S
*VENTURA         N/A     82  59  44 SW7       29.50S

$$

CAZ044-045-302100-
VENTURA COUNTY VALLEYS


CITY           SKY/WX    TMP DP  RH WIND       PRES   REMARKS
*SIMI VALLEY     N/A     91  58  32 W5        29.82S HX  90
*OJAI            N/A     99  58  25 W3        29.79F HX  98
*FILLMORE        N/A     96  63  33 CALM      29.76F HX  97

$$

CAZ053-302100-
VENTURA COUNTY MOUNTAINS


CITY           SKY/WX    TMP DP  RH WIND       PRES   REMARKS

$$

CAZ034-035-036-302100-
CENTRAL COAST AND SANTA YNEZ VALLEY


CITY           SKY/WX    TMP DP  RH WIND       PRES   REMARKS
SAN LUIS OBISP MOSUNNY   87  56  34 W7        29.88F
SANTA MARIA    MOSUNNY   79  58  48 NW12      29.90R

CITY           SKY/WX    TMP DP  RH WIND       PRES   REMARKS
*CAL POLY SLO    N/A     88  63  42 SW6         N/A
*LOMPOC        MOSUNNY   75  57  53 W13       29.90F
*PISMO BEACH     N/A     60  56  87 SW3       29.91S
*SANTA YNEZ    FAIR      97  43  15 NW10      29.87F HX  92

$$

CAZ037-038-051-302100-
SAN LUIS OBISPO COUNTY INTERIOR AND CUYAMA VALLEY


CITY           SKY/WX    TMP DP  RH WIND       PRES   REMARKS
*CUYAMA          N/A     97  52  21 NE2       29.76F HX  95
PASO ROBLES    SUNNY    104  48  15 VRB5      29.86F HX 100

$$

CAZ032-033-061-302100-
SOUTHERN DESERTS


CITY           SKY/WX    TMP DP  RH WIND       PRES   REMARKS
BLYTHE         PTSUNNY  102  64  28 S22G31    29.84F HX 105
IMPERIAL       LGT RAIN  98  59  27 SW12      29.78F HX  98
PALM SPRINGS   SUNNY    101  66  31 E14       29.88F HX 105
THERMAL        MOSUNNY  101  70  36 SE15G25   29.81F HX 108

$$

ELSEWHERE ACROSS THE WESTERN UNITED STATES AND MEXICO


CITY           SKY/WX    TMP DP  RH WIND       PRES   REMARKS
DENVER, CO     MOSUNNY   92  43  18 VRB6      30.10F
GRAND CANYON,  LGT RAIN  79  53  40 VRB5G16   30.27S
HONOLULU, HI   MOSUNNY   84  70  61 S8        29.96S
KAHULUI, MAUI  MOSUNNY   86  72  62 N10       29.97F HX  92
LAKE TAHOE, CA SUNNY     83  54  36 MISG      30.26F
LAS VEGAS, NV  MOSUNNY  106  47  13 SW9       29.84F HX 102
MAMMOTH LAKES, FAIR      82  37  20 SW6       30.32F
MEXICO CITY, M PTSUNNY   73  50  43 E3        30.27F
PHOENIX, AZ    MOSUNNY  101  61  26 W8G20     29.85F HX 102
PORTLAND, OR   MOSUNNY   80  58  46 W9        30.06F
RENO, NV       PTSUNNY   95  41  15 VRB3      30.10F HX  91
SALT LAKE CITY MOSUNNY   97  52  21 N8        30.04F HX  94
SAN DIEGO, CA  PTSUNNY   76  63  64 S7        29.95R
SAN FRANCISCO, PTSUNNY   75  55  49 NW13      29.87F
SAN JOSE, CA   PTSUNNY   86  55  34 NW6       29.86F
SEATTLE, WA    SUNNY     76  59  55 VRB5      30.12F
TIJUANA, MEX   PTSUNNY   81  61  50 NW9       29.95R

$$

STATION/POSITION TIME  TEMP    WIND        PRES    VSBY  WAVE
                       AIR SEA DIR/SP/G                  HT/PER
                 (UTC) (F)     (DEG/KT/KT) (MB)    (MI)  (FT/S)
POINT ARGUELLO B NOT AVBL
WEST SANTA BARBA 1950   58 61  290/  6/ 10 1012.3F         4/ 8
POINT CONCEPTION NOT AVBL
EAST SANTA BARBA 1900   59 65  250/  8/ 10 1013.4R
SANTA MONICA BAY 1950   65 70  320/  2/  4 1012.8F         3/14


USA.gov is the U.S. government's official web portal to all federal, state and local government web resources and services.